Location: Austin
(30.3000°N, 97.7500°W)
Time: 07:25:51
(UTC-05:00)

PSLV R/B - Pass Details

Date: 11 June 2024
Orbit: 464 x 518 km, 97.7° (Epoch: 22 June)

Event Time Altitude Azimuth Distance (km) Brightness Sun altitude
Exits shadow 21:35:11 17° 152° (SSE) 1,307 5.2 -12.2°
Maximum altitude 21:37:49 57° 77° (ENE) 573 3.7 -12.6°
Drops below altitude 10° 21:41:18 10° 358° (N) 1,649 6.8 -13.2°
Sets 21:43:22 0° 354° (N) 2,523 7.9 -13.6°
